STARLINK-4605, 53616

Orbit data source: Space-Track

STARLINK-4605, 53616 is a payload satellite owned by SpaceX/Seattle (US) in LEO that was launched on Sun, 28 Aug 2022 UTC via an FALCON 9 launch vehicle from the Air Force Eastern Test Range (AFETR). Payload-class satellites include a variety of spacecraft equipped with specific instruments for various scientific and technological missions. These include communications satellites like Starlink; space stations such as the ISS; scientific satellites like the Hubble; Earth observation satellites from companies like Planet Labs, Umbra, and HawkEye 360; GPS; miniature CubeSats for education and research; and military/defense satellites.

Loading next visibility...
Identifier
53616, 2022-104AE
Orbit
LEO
Country
Flag of USUS
Related business
Manufacturer
SpaceX/Seattle
Mission
Operational Commercial Communications
Bus & Motor
STARLINK, Unknown motor
Mass
300 kg wet, ~290 kg dry
Launch date (UTC)
2022-08-28 (4 years ago)
Launch vehicle
FALCON 9
Launch site
Air Force Eastern Test Range (AFETR)
Object type
Payload
Rocket body
Debris
Shape & HBR
Box + 1 Pan, 10.1 m
Radar Cross Section
13.562 m², Large (>1 m²)

Expand to show TLE details & history
Last TLE update: 1 day ago

TLE from 1 day ago
0 STARLINK-4605
1 53616U 22104AE  26264.70792586 -.00000045  00000-0  98078-5 0  9991
2 53616  53.1606  55.8564 0001218  81.8106 278.3035 15.34383990225588
Epoch: 2026-09-21T16:59Z
TLE epoch observation values (Epoch: 2026-09-21T16:59:24.794Z)
Latitude
0.00001°
Longitude
160.41922°
Altitude
463.532 km
Speed
7.636 km/s
True Right ascension
03h 43m 25s
True Declination
0° 00' 00"
Sunlit
Object was in full shadow at epoch
Visualization orbit readout
Latitude
Unknown
Longitude
Unknown
Altitude
Unknown
Speed
Unknown
Apparent Right ascension
Unknown
Apparent Declination
Unknown
Sunlit
N/A
Visualization observer readout
Local Sidereal Time
10:14:04
Azimuth
Unknown
Elevation
Unknown
Doppler factor
Unknown
Orbital elements
Apogee altitude
463.841 km
Perigee altitude
462.174 km
Semi-major axis
6,841.145 km
Eccentricity
0.00012
Inclination
53.1606°
RAAN
55.8564°
Arg. of periapsis
81.8106°
True anomaly
278.28969°
Mean anomaly
278.3035°
Eccentric anomaly
278.29659°
Mean motion
3.83575 °/min
Orbital period
93.85 mins
BSTAR
0.0000098078
Loading maneuver chart data...
Computing Atmospheric mass density...
Loading historical data...
Loading historical data...
Loading historical data...
Loading historical data...
Loading historical data...
Loading historical data...
Loading historical data...

Documentation

Showing up to 5 results
|